Regional Weather Roundup
Issued by NWS

Home | Current Version | Previous Version | Text Only | Print | Product List | Glossary Off
Versions: 1 2 3 4 5 6 7 8 9 10 11 12 13 14 15 16 17 18 19 20 21 22 23 24 25 26 27 28 29 30 31 32 33 34 35 36 37 38 39 40 41 42 43 44 45 46 47 48 49 50

479
ASUS43 KLSX 011257
RWRMO

WEATHER SUMMARY FOR MISSOURI
NATIONAL WEATHER SERVICE SPRINGFIELD MO
800 AM CDT SAT OCT 01 2016

NOTE: "FAIR" INDICATES FEW OR NO CLOUDS BELOW 12,000 FEET WITH NO
       SIGNIFICANT WEATHER AND/OR OBSTRUCTIONS TO VISIBILITY.
       CURRENT SKY AND/OR WEATHER CONDITIONS ARE NOT AVAILABLE FOR
       CHILLICOTHE AND FARMINGTON.

MOZ001>031-035>038-043-044-053-054-011400-
...NORTHERN AND WESTERN MISSOURI...

CITY           SKY/WX    TMP DP  RH WIND       PRES   REMARKS
KANSAS CTY INT MOCLDY    56  53  90 CALM      30.13S
LEE`S SUMMIT   CLOUDY    57  56  96 CALM      30.13S
ST JOSEPH      CLOUDY    57  55  93 CALM      30.13S
CHILLICOTHE      N/A     61  57  87 CALM      30.12S

$$
MOZ066>068-077>081-088>096-101>105-011400-
...SOUTHWEST MISSOURI...

CITY           SKY/WX    TMP DP  RH WIND       PRES   REMARKS
SPRINGFIELD    PTCLDY    53  50  89 CALM      30.12R
JOPLIN         CLEAR     50  50 100 CALM      30.12R
BRANSON        CLEAR     55  54  94 SW3       30.13R

$$
MOZ032>034-039>042-045>050-055>058-069>072-011400-
...CENTRAL MISSOURI...

CITY           SKY/WX    TMP DP  RH WIND       PRES   REMARKS
COLUMBIA       NOT AVBL
JEFFERSON CITY CLOUDY    59  57  93 NW3       30.10R
ROLLA          CLOUDY    57  56  96 W7        30.09R
SEDALIA        CLOUDY    57  55  93 CALM      30.12S

$$
MOZ051-052-059>065-011400-
...EAST CENTRAL MISSOURI...

CITY           SKY/WX    TMP DP  RH WIND       PRES   REMARKS
ST LOUIS INTL  CLOUDY    63  59  87 NW6       30.06R

$$
MOZ072>076-082>087-097>100-106>115-011400-
...SOUTH CENTRAL AND SOUTHEAST MISSOURI...

CITY           SKY/WX    TMP DP  RH WIND       PRES   REMARKS
CAPE GIRARDEAU CLOUDY    59  56  89 W6        30.06R
POPLAR BLUFF   CLOUDY    58  57  97 NW6       30.09R

$$



USA.gov is the U.S. government's official web portal to all federal, state and local government web resources and services.